TimeCST,TemperatureF,Dew PointF,Humidity,Sea Level PressureIn,VisibilityMPH,Wind Direction,Wind SpeedMPH,Gust SpeedMPH,PrecipitationIn,Events,Conditions,WindDirDegrees,DateUTC
12:57 AM,39.9,21.9,49,30.18,10.0,South,6.9,-,N/A,,Clear,170,2012-12-14 06:57:00
1:57 AM,42.1,21.0,43,30.17,10.0,SE,6.9,-,N/A,,Clear,140,2012-12-14 07:57:00
2:57 AM,39.9,21.0,47,30.17,10.0,SE,5.8,-,N/A,,Clear,140,2012-12-14 08:57:00
3:57 AM,41.0,19.9,43,30.16,10.0,SSE,6.9,-,N/A,,Clear,150,2012-12-14 09:57:00
5:57 AM,37.0,27.0,67,30.17,10.0,ESE,4.6,-,N/A,,Clear,120,2012-12-14 11:57:00
6:57 AM,37.0,27.0,67,30.17,10.0,ESE,5.8,-,N/A,,Clear,120,2012-12-14 12:57:00
7:57 AM,39.0,28.0,65,30.18,10.0,SE,6.9,-,N/A,,Clear,130,2012-12-14 13:57:00
9:57 AM,46.9,25.0,42,30.16,10.0,SSE,6.9,-,N/A,,Clear,150,2012-12-14 15:57:00
11:57 AM,55.0,21.9,28,30.12,10.0,South,13.8,-,N/A,,Unknown,180,2012-12-14 17:57:00
12:57 PM,55.0,23.0,29,30.08,10.0,SSE,8.1,-,N/A,,Overcast,150,2012-12-14 18:57:00
1:57 PM,55.0,23.0,29,30.04,10.0,SSE,11.5,-,N/A,,Overcast,150,2012-12-14 19:57:00
2:57 PM,54.0,24.1,31,30.00,10.0,SE,11.5,-,N/A,,Overcast,140,2012-12-14 20:57:00
4:57 PM,46.9,35.1,63,29.96,10.0,ESE,8.1,-,0.03,Rain,Light Rain,120,2012-12-14 22:57:00
5:57 PM,46.0,35.1,66,29.94,10.0,SE,11.5,-,0.03,Rain,Light Rain,130,2012-12-14 23:57:00
6:57 PM,46.0,34.0,63,29.93,10.0,SSE,16.1,24.2,0.01,,Overcast,160,2012-12-15 00:57:00
7:57 PM,44.1,36.0,73,29.96,10.0,South,16.1,25.3,0.01,Rain,Light Rain,170,2012-12-15 01:57:00
8:57 PM,44.1,37.9,79,29.90,10.0,ESE,15.0,29.9,0.03,Rain,Light Rain,120,2012-12-15 02:57:00
9:57 PM,44.1,39.9,85,29.87,10.0,SE,13.8,-,0.03,Rain,Light Rain,130,2012-12-15 03:57:00
10:04 PM,44.6,39.2,81,29.86,10.0,SE,12.7,-,0.00,Rain-Thunderstorm,Light Rain,130,2012-12-15 04:04:00
10:20 PM,46.4,39.2,76,29.86,10.0,SE,16.1,-,0.00,,Overcast,130,2012-12-15 04:20:00
10:57 PM,48.0,39.9,74,29.83,10.0,SE,17.3,-,0.00,,Overcast,140,2012-12-15 04:57:00